Montreal Mirabel, Quebec

7:12 AM EST on November 24, 2017 (GMT -0500)
Montreal Mirabel

Weather History for CYMX - January, 2014

Change the Weather History Date:

Wednesday, January 22, 2014

  Actual Average Record
Temperature  
Mean Temperature -11 °F -  
Max Temperature 0 °F 15 °F 42 °F (1997)
Min Temperature -22 °F 0 °F -23 °F (2005)
Degree Days  
Heating Degree Days 76    
Moisture  
Dew Point -21 °F    
Average Humidity 61    
Maximum Humidity 76    
Minimum Humidity 46    
Precipitation  
Precipitation 0.00 in - - ()
Sea Level Pressure  
Sea Level Pressure 30.07 in    
Wind  
Wind Speed 3 mph ()    
Max Wind Speed 13 mph    
Max Gust Speed -    
Averages and records for this station are not official NWS values.
T = Trace of Precipitation, MM = Missing Value Source: Averaged Metar Reports

Daily Weather History Graph

Daily Weather History Graph

Search for Another Location

Airport or City:

Trip Planner

Search our weather history database for the weather conditions in past years. The results will help you decide how hot, cold, wet, or windy it might be!

Date:

Astronomy

Jan. 22, 2014 Rise Set
Actual Time 7:27 AM EST 4:48 PM EST
Civil Twilight 6:55 AM EST 5:20 PM EST
Nautical Twilight 6:18 AM EST 5:56 PM EST
Astronomical Twilight 5:43 AM EST 6:32 PM EST
Moon 11:40 PM EST (1/22) 10:06 AM EST (1/22)
Length of Visible Light 10h 25m
Length of Day
9h 20m
Waning Gibbous, 65% of the Moon is Illuminated
Jan 22
Waning Gibbous
Jan 24
Last Quarter
Jan 30
New
Feb 6
First Quarter
Feb 14
Full

Hourly Weather History & Observations

Time (EST) Temp. Windchill Dew Point Humidity Pressure Visibility Wind Dir Wind Speed Gust Speed Precip Events Conditions
12:00 AM -14.8 °F - -23.8 °F 64% 30.19 in 25.0 mi Calm Calm - N/A   Clear
1:00 AM -14.8 °F -24.8 °F -22.0 °F 70% 30.16 in 25.0 mi North 3.5 mph - N/A   Clear
2:00 AM -14.8 °F -24.8 °F -22.0 °F 70% 30.15 in 25.0 mi NNW 3.5 mph - N/A   Clear
3:00 AM -16.6 °F - -23.8 °F 70% 30.14 in 25.0 mi North 2.3 mph - N/A   Clear
4:00 AM -20.2 °F - -27.4 °F 69% 30.13 in 25.0 mi Calm Calm - N/A   Clear
5:00 AM -18.4 °F - -25.6 °F 70% 30.12 in 25.0 mi Calm Calm - N/A   Clear
6:00 AM -20.2 °F - -27.4 °F 69% 30.12 in 25.0 mi SW 2.3 mph - N/A   Clear
7:00 AM -22.0 °F - -29.2 °F 69% 30.12 in 25.0 mi Calm Calm - N/A   Partly Cloudy
8:00 AM -22.0 °F - -27.4 °F 76% 30.13 in 45.0 mi WNW 2.3 mph - N/A   Partly Cloudy
9:00 AM -16.6 °F - -23.8 °F 70% 30.12 in 45.0 mi Calm Calm - N/A   Partly Cloudy
10:00 AM -9.4 °F - -20.2 °F 59% 30.10 in 45.0 mi Calm Calm - N/A   Partly Cloudy
11:00 AM -7.6 °F -16.5 °F -20.2 °F 54% 30.09 in 25.0 mi West 3.5 mph - N/A   Partly Cloudy
12:00 PM -5.8 °F -16.7 °F -18.4 °F 55% 30.04 in 25.0 mi West 4.6 mph - N/A   Clear
1:00 PM -4.0 °F -17.8 °F -18.4 °F 50% 30.00 in 40.0 mi WSW 6.9 mph - N/A   Partly Cloudy
2:00 PM -2.2 °F -20.7 °F -16.6 °F 50% 29.98 in 25.0 mi WSW 12.7 mph - N/A   Partly Cloudy
3:00 PM -0.4 °F -15.7 °F -16.6 °F 46% 29.97 in 25.0 mi WSW 9.2 mph - N/A   Scattered Clouds
4:00 PM -2.2 °F -18.0 °F -16.6 °F 50% 29.97 in 25.0 mi WSW 9.2 mph - N/A   Mostly Cloudy
5:00 PM -2.2 °F -18.0 °F -16.6 °F 50% 30.00 in 25.0 mi WSW 9.2 mph - N/A   Mostly Cloudy
6:00 PM -4.0 °F -19.0 °F -16.6 °F 55% 30.02 in 25.0 mi WSW 8.1 mph - N/A   Scattered Clouds
7:00 PM -4.0 °F -19.0 °F -16.6 °F 55% 30.02 in 25.0 mi WSW 8.1 mph - N/A   Mostly Cloudy
8:00 PM -5.8 °F -19.9 °F -16.6 °F 60% 30.03 in 25.0 mi WSW 6.9 mph - N/A   Mostly Cloudy
9:00 PM -7.6 °F -23.4 °F -16.6 °F 65% 30.03 in 25.0 mi WSW 8.1 mph - N/A   Scattered Clouds
10:00 PM -7.6 °F -22.1 °F -16.6 °F 65% 30.03 in 25.0 mi WSW 6.9 mph - N/A   Scattered Clouds
11:00 PM -7.6 °F -22.1 °F -18.4 °F 59% 30.03 in 25.0 mi WSW 6.9 mph - N/A   Partly Cloudy